TimeEST,TemperatureF,Dew PointF,Humidity,Sea Level PressureIn,VisibilityMPH,Wind Direction,Wind SpeedMPH,Gust SpeedMPH,PrecipitationIn,Events,Conditions,WindDirDegrees,DateUTC
12:55 AM,27.7,17.8,66,30.44,10.0,South,9.2,-,N/A,,Clear,170,2013-01-19 05:55:00
1:55 AM,28.2,18.3,66,30.43,10.0,South,8.1,-,N/A,,Clear,180,2013-01-19 06:55:00
2:55 AM,28.9,19.6,68,30.42,10.0,South,6.9,-,N/A,,Clear,180,2013-01-19 07:55:00
3:55 AM,31.1,23.5,74,30.40,10.0,South,11.5,20.7,N/A,,Clear,190,2013-01-19 08:55:00
4:55 AM,31.1,25.3,79,30.38,10.0,South,10.4,-,N/A,,Clear,190,2013-01-19 09:55:00
5:55 AM,32.0,27.5,83,30.38,10.0,South,12.7,-,N/A,,Clear,190,2013-01-19 10:55:00
6:55 AM,32.7,29.3,87,30.36,10.0,South,12.7,-,N/A,,Clear,190,2013-01-19 11:55:00
7:55 AM,33.4,30.2,88,30.36,10.0,SSW,15.0,-,N/A,,Clear,210,2013-01-19 12:55:00
8:55 AM,36.5,30.0,77,30.36,10.0,SSW,17.3,-,N/A,,Clear,200,2013-01-19 13:55:00
9:55 AM,41.5,28.4,60,30.35,10.0,SW,17.3,24.2,N/A,,Clear,220,2013-01-19 14:55:00
10:55 AM,45.1,27.0,49,30.32,10.0,SSW,16.1,25.3,N/A,,Clear,200,2013-01-19 15:55:00
11:55 AM,48.6,26.8,43,30.26,10.0,SSW,20.7,28.8,N/A,,Clear,210,2013-01-19 16:55:00
12:55 PM,50.4,28.6,43,30.22,10.0,SSW,19.6,-,N/A,,Clear,200,2013-01-19 17:55:00
1:55 PM,52.5,28.9,40,30.19,10.0,SSW,18.4,-,N/A,,Clear,200,2013-01-19 18:55:00
2:55 PM,52.5,28.6,40,30.16,10.0,SSW,18.4,26.5,N/A,,Clear,200,2013-01-19 19:55:00
3:55 PM,50.7,28.6,42,30.14,10.0,South,18.4,-,N/A,,Clear,190,2013-01-19 20:55:00
4:55 PM,47.1,28.9,49,30.12,10.0,South,13.8,-,N/A,,Clear,190,2013-01-19 21:55:00
5:55 PM,44.4,28.9,55,30.11,10.0,South,11.5,-,N/A,,Clear,190,2013-01-19 22:55:00
6:55 PM,42.8,28.9,58,30.10,10.0,South,15.0,-,N/A,,Clear,180,2013-01-19 23:55:00
7:55 PM,42.3,28.6,58,30.09,10.0,South,16.1,-,N/A,,Clear,190,2013-01-20 00:55:00
8:55 PM,42.6,28.8,58,30.06,10.0,South,17.3,-,N/A,,Clear,190,2013-01-20 01:55:00
9:55 PM,43.5,29.3,57,30.05,10.0,South,16.1,-,N/A,,Clear,190,2013-01-20 02:55:00
10:55 PM,43.7,29.3,57,30.02,10.0,South,18.4,-,N/A,,Clear,190,2013-01-20 03:55:00
11:55 PM,42.3,29.3,60,29.99,10.0,South,17.3,-,N/A,,Clear,190,2013-01-20 04:55:00